Date String (YYYY-MM-DD hh:mm:ss) UTC,Instrument flags,Ambient pressure (hPa),Sample flow (lpm),Bypass flow (lpm),Sample temperature (°C),Ambient temperature (°C),ASC tube jacket temperature (°C),LED temperature (°C),Box temperature (°C),Sample RH (%),Span deviation,Mass concentration (μg/m³),Mass concentration (μg/m³),Mass concentration (μg/m³)
DateTimeUTC,F1_M11,P_M11,Q1_M11,Q2_M11,T1_M11,T2_M11,T3_M11,T4_M11,T5_M11,U1_M11,ZSPAN_M11,X2_M11,X0_M11,X1_M11
2021-12-10 21:00:00,,0815.2,4.99,0.00,22.6,21.4,00.0,31.6,24.2,05.7,0000.0,0001.83,0004.51,0001.31
2021-12-10 21:01:00,,0815.3,4.99,0.00,22.6,21.4,00.0,31.6,24.2,05.5,0000.0,0001.83,0005.04,0001.30
2021-12-10 21:02:00,,0815.3,5.01,0.00,22.6,21.4,00.0,31.6,24.2,05.5,0000.0,0001.83,0005.70,0001.29
2021-12-10 21:03:00,,0815.4,4.99,0.00,22.6,21.3,00.0,31.6,24.2,05.4,0000.0,0001.85,0005.43,0001.29
2021-12-10 21:04:00,,0815.4,5.00,0.00,22.6,21.3,00.0,31.6,24.2,05.5,0000.0,0001.80,0004.27,0001.29
2021-12-10 21:05:00,,0815.5,5.01,0.00,22.6,21.3,00.0,31.6,24.2,05.8,0000.0,0001.78,0004.29,0001.29
2021-12-10 21:06:00,,0815.4,5.00,0.00,22.6,21.4,00.0,31.6,24.2,05.8,0000.0,0001.83,0004.45,0001.31
2021-12-10 21:07:00,,0815.5,4.99,0.00,22.6,21.4,00.0,31.6,24.2,06.2,0000.0,0001.80,0004.37,0001.32
2021-12-10 21:08:00,,0815.8,4.99,0.00,22.6,21.4,00.0,31.6,24.3,06.2,0000.0,0001.79,0004.37,0001.33
2021-12-10 21:09:00,,0816.0,5.01,0.00,22.6,21.4,00.0,31.6,24.2,05.9,0000.0,0001.82,0004.46,0001.35
2021-12-10 21:10:00,,0816.1,4.99,0.00,22.6,21.4,00.0,31.6,24.2,05.9,0000.0,0001.81,0004.42,0001.34
2021-12-10 21:11:00,,0816.0,5.00,0.00,22.6,21.4,00.0,31.6,24.2,05.9,0000.0,0001.86,0004.51,0001.36
2021-12-10 21:12:00,,0815.9,5.01,0.00,22.6,21.3,00.0,31.6,24.2,05.9,0000.0,0001.86,0003.85,0001.36
2021-12-10 21:13:00,,0816.0,4.99,0.00,22.6,21.3,00.0,31.6,24.2,06.1,0000.0,0001.86,0003.10,0001.37
2021-12-10 21:14:00,,0815.7,4.99,0.00,22.6,21.3,00.0,31.6,24.2,06.4,0000.0,0001.86,0003.10,0001.39
2021-12-10 21:15:00,,0815.7,4.99,0.00,22.6,21.4,00.0,31.6,24.3,06.4,0000.0,0001.91,0003.21,0001.41
2021-12-10 21:16:00,,0815.8,5.00,0.00,22.6,21.5,00.0,31.6,24.3,06.2,0000.0,0001.92,0003.31,0001.42
2021-12-10 21:17:00,,0815.8,5.00,0.00,22.5,21.5,00.0,31.6,24.2,06.5,0000.0,0001.93,0003.82,0001.42
2021-12-10 21:18:00,,0815.8,4.99,0.00,22.5,21.4,00.0,31.6,24.1,06.8,0000.0,0001.94,0003.93,0001.44
2021-12-10 21:19:00,,0815.8,5.01,0.00,22.5,21.4,00.0,31.6,24.1,06.5,0000.0,0001.95,0003.93,0001.46
2021-12-10 21:20:00,,0815.8,5.00,0.00,22.5,21.4,00.0,31.6,24.2,06.4,0000.0,0001.94,0004.47,0001.45
2021-12-10 21:21:00,,0815.8,4.99,0.00,22.5,21.4,00.0,31.6,24.2,06.6,0000.0,0001.96,0004.91,0001.47
2021-12-10 21:22:00,,0815.9,5.00,0.00,22.5,21.3,00.0,31.6,24.2,06.6,0000.0,0001.95,0004.88,0001.47
2021-12-10 21:23:00,,0815.9,5.01,0.00,22.5,21.3,00.0,31.6,24.2,06.6,0000.0,0001.94,0004.89,0001.48
2021-12-10 21:24:00,,0815.9,4.99,0.00,22.5,21.2,00.0,31.6,24.2,06.6,0000.0,0001.93,0004.91,0001.49
2021-12-10 21:25:00,,0816.0,4.99,0.00,22.5,21.3,00.0,31.6,24.2,06.8,0000.0,0001.91,0005.55,0001.49
2021-12-10 21:26:00,,0816.0,4.99,0.00,22.5,21.3,00.0,31.6,24.2,06.7,0000.0,0001.87,0005.63,0001.48
2021-12-10 21:27:00,,0816.0,5.01,0.00,22.5,21.3,00.0,31.6,24.2,06.7,0000.0,0001.90,0005.72,0001.48
2021-12-10 21:28:00,,0816.0,4.99,0.00,22.5,21.3,00.0,31.6,24.2,06.7,0000.0,0001.89,0005.06,0001.48
2021-12-10 21:29:00,,0816.0,5.00,0.00,22.6,21.3,00.0,31.6,24.3,06.9,0000.0,0001.90,0004.89,0001.49
2021-12-10 21:30:00,,0816.0,5.01,0.00,22.6,21.3,00.0,31.6,24.2,06.9,0000.0,0001.89,0004.87,0001.48
2021-12-10 21:31:00,,0816.0,4.99,0.00,22.6,21.3,00.0,31.6,24.2,06.9,0000.0,0001.88,0004.29,0001.49
2021-12-10 21:32:00,,0816.1,5.00,0.00,22.5,21.3,00.0,31.6,24.2,06.9,0000.0,0001.82,0003.66,0001.49
2021-12-10 21:33:00,,0816.1,5.02,0.00,22.5,21.3,00.0,31.6,24.2,06.8,0000.0,0001.80,0003.60,0001.48
2021-12-10 21:34:00,,0816.2,4.99,0.00,22.5,21.3,00.0,31.6,24.1,06.6,0000.0,0001.79,0003.59,0001.46
2021-12-10 21:35:00,,0816.2,5.01,0.00,22.5,21.2,00.0,31.5,24.1,06.6,0000.0,0001.78,0003.56,0001.45
2021-12-10 21:36:00,,0816.3,5.00,0.00,22.5,21.2,00.0,31.5,24.1,06.6,0000.0,0001.77,0003.02,0001.44
2021-12-10 21:37:00,,0816.2,5.00,0.00,22.5,21.2,00.0,31.5,24.0,06.8,0000.0,0001.81,0002.92,0001.43
2021-12-10 21:38:00,,0816.2,4.99,0.00,22.5,21.2,00.0,31.5,24.0,06.7,0000.0,0001.80,0002.90,0001.42
2021-12-10 21:39:00,,0816.2,5.01,0.00,22.4,21.2,00.0,31.5,24.1,06.7,0000.0,0001.78,0002.88,0001.41
2021-12-10 21:40:00,,0816.3,5.00,0.00,22.4,21.2,00.0,31.5,24.1,06.6,0000.0,0001.76,0002.85,0001.40
2021-12-10 21:41:00,,0816.3,5.01,0.00,22.4,21.1,00.0,31.5,24.0,06.8,0000.0,0001.77,0002.89,0001.40
2021-12-10 21:42:00,,0816.3,5.01,0.00,22.4,21.1,00.0,31.5,24.0,06.9,0000.0,0001.77,0002.97,0001.39
2021-12-10 21:43:00,,0816.3,4.99,0.00,22.4,21.1,00.0,31.5,24.0,06.6,0000.0,0001.82,0003.14,0001.39
2021-12-10 21:44:00,,0816.4,5.00,0.00,22.4,21.1,00.0,31.5,24.0,06.6,0000.0,0001.83,0003.13,0001.39
2021-12-10 21:45:00,,0816.4,5.00,0.00,22.4,21.1,00.0,31.5,24.0,06.8,0000.0,0001.85,0003.16,0001.39
2021-12-10 21:46:00,,0816.4,5.01,0.00,22.4,21.0,00.0,31.5,24.0,06.8,0000.0,0001.87,0003.20,0001.39
2021-12-10 21:47:00,,0816.5,5.00,0.00,22.4,21.0,00.0,31.5,24.0,06.8,0000.0,0001.86,0003.21,0001.38
2021-12-10 21:48:00,,0816.5,4.98,0.00,22.4,21.0,00.0,31.5,23.9,06.8,0000.0,0001.82,0003.05,0001.37
2021-12-10 21:49:00,,0816.4,5.01,0.00,22.4,21.3,00.0,31.5,24.1,06.7,0000.0,0001.76,0002.97,0001.34
2021-12-10 21:50:00,,0816.6,4.99,0.00,22.5,22.0,00.0,31.5,24.3,06.6,0000.0,0001.72,0002.84,0001.32
2021-12-10 21:51:00,,0816.7,5.01,0.00,22.6,22.9,00.0,31.6,24.7,06.6,0000.0,0001.71,0002.82,0001.30
2021-12-10 21:52:00,,0816.7,4.99,0.00,22.7,23.2,00.0,31.6,24.8,06.5,0000.0,0001.70,0002.82,0001.29
2021-12-10 21:53:00,,0816.6,5.00,0.00,22.8,23.0,00.0,31.6,24.8,06.4,0000.0,0001.69,0002.74,0001.27
2021-12-10 21:54:00,,0816.6,5.01,0.00,22.7,22.8,00.0,31.6,24.6,06.4,0000.0,0001.64,0002.60,0001.25
2021-12-10 21:55:00,,0816.7,4.99,0.00,22.7,22.6,00.0,31.6,24.5,06.4,0000.0,0001.64,0002.63,0001.24
2021-12-10 21:56:00,,0816.7,5.00,0.00,22.7,22.3,00.0,31.6,24.4,06.4,0000.0,0001.60,0002.56,0001.23
2021-12-10 21:57:00,,0816.9,5.02,0.00,22.7,22.2,00.0,31.6,24.3,06.6,0000.0,0001.61,0002.61,0001.23
2021-12-10 21:58:00,,0816.8,4.99,0.00,22.6,22.0,00.0,31.6,24.2,06.7,0000.0,0001.68,0002.79,0001.24
2021-12-10 21:59:00,,0816.8,5.02,0.00,22.6,21.9,00.0,31.6,24.2,06.5,0000.0,0001.72,0002.82,0001.25
